TimeEDT,TemperatureF,Dew PointF,Humidity,Sea Level PressureIn,VisibilityMPH,Wind Direction,Wind SpeedMPH,Gust SpeedMPH,PrecipitationIn,Events,Conditions,WindDirDegrees,DateUTC
12:15 AM,68.0,59.0,73,29.82,10.0,South,12.7,27.6,N/A,,Scattered Clouds,190,2013-10-07 04:15:00
12:35 AM,68.0,59.0,73,29.82,10.0,South,15.0,24.2,N/A,,Scattered Clouds,180,2013-10-07 04:35:00
12:55 AM,68.0,59.0,73,29.81,10.0,South,12.7,21.9,N/A,,Scattered Clouds,180,2013-10-07 04:55:00
1:15 AM,68.0,59.0,73,29.81,10.0,South,10.4,26.5,N/A,,Scattered Clouds,180,2013-10-07 05:15:00
1:35 AM,68.0,59.0,73,29.80,10.0,South,15.0,24.2,N/A,,Scattered Clouds,180,2013-10-07 05:35:00
1:55 AM,68.0,59.0,73,29.79,10.0,South,12.7,31.1,N/A,,Scattered Clouds,180,2013-10-07 05:55:00
2:15 AM,66.2,59.0,78,29.78,10.0,South,13.8,31.1,N/A,,Scattered Clouds,180,2013-10-07 06:15:00
2:35 AM,66.2,59.0,78,29.77,10.0,South,9.2,18.4,N/A,,Scattered Clouds,170,2013-10-07 06:35:00
2:55 AM,66.2,59.0,78,29.76,10.0,South,15.0,25.3,N/A,,Scattered Clouds,180,2013-10-07 06:55:00
3:15 AM,66.2,59.0,78,29.75,10.0,South,11.5,23.0,N/A,,Mostly Cloudy,180,2013-10-07 07:15:00
3:35 AM,66.2,59.0,78,29.74,10.0,South,10.4,19.6,N/A,,Mostly Cloudy,190,2013-10-07 07:35:00
3:55 AM,66.2,59.0,78,29.74,10.0,South,11.5,23.0,N/A,,Overcast,190,2013-10-07 07:55:00
4:15 AM,66.2,59.0,78,29.73,10.0,South,13.8,23.0,N/A,,Overcast,180,2013-10-07 08:15:00
4:35 AM,66.2,59.0,78,29.73,10.0,South,12.7,26.5,N/A,,Overcast,180,2013-10-07 08:35:00
4:55 AM,66.2,59.0,78,29.72,10.0,South,11.5,24.2,N/A,,Overcast,190,2013-10-07 08:55:00
5:15 AM,64.4,59.0,83,29.72,10.0,SSW,13.8,26.5,N/A,,Overcast,200,2013-10-07 09:15:00
5:35 AM,64.4,59.0,83,29.71,10.0,South,11.5,21.9,N/A,,Overcast,190,2013-10-07 09:35:00
5:55 AM,64.4,59.0,83,29.71,10.0,SSW,15.0,20.7,N/A,,Overcast,200,2013-10-07 09:55:00
6:15 AM,64.4,59.0,83,29.71,10.0,SSW,12.7,25.3,N/A,,Overcast,200,2013-10-07 10:15:00
6:35 AM,64.4,59.0,83,29.70,10.0,South,12.7,17.3,N/A,,Overcast,190,2013-10-07 10:35:00
6:55 AM,64.4,59.0,83,29.69,10.0,South,8.1,-,N/A,,Overcast,190,2013-10-07 10:55:00
7:15 AM,60.8,55.4,82,29.71,5.0,WNW,6.9,24.2,N/A,Rain,Heavy Rain,290,2013-10-07 11:15:00
7:35 AM,55.4,55.4,100,29.72,4.0,WNW,4.6,20.7,N/A,Rain,Heavy Rain,290,2013-10-07 11:35:00
7:55 AM,53.6,53.6,100,29.73,5.0,West,4.6,-,N/A,Rain,Heavy Rain,270,2013-10-07 11:55:00
8:15 AM,53.6,51.8,94,29.74,5.0,WSW,10.4,19.6,N/A,Rain,Rain,250,2013-10-07 12:15:00
8:35 AM,51.8,51.8,100,29.73,7.0,WSW,9.2,25.3,N/A,Rain,Heavy Rain,250,2013-10-07 12:35:00
8:55 AM,51.8,50.0,94,29.73,7.0,WSW,5.8,-,N/A,Rain,Light Rain,240,2013-10-07 12:55:00
9:15 AM,51.8,51.8,100,29.75,7.0,SW,8.1,17.3,N/A,Rain,Rain,230,2013-10-07 13:15:00
9:35 AM,51.8,50.0,94,29.76,7.0,SW,5.8,-,N/A,Rain,Light Rain,230,2013-10-07 13:35:00
9:55 AM,51.8,50.0,94,29.76,5.0,SW,5.8,-,N/A,Rain,Rain,230,2013-10-07 13:55:00
10:15 AM,51.8,50.0,94,29.78,5.0,SW,8.1,-,N/A,Rain,Rain,230,2013-10-07 14:15:00
10:35 AM,50.0,50.0,100,29.77,5.0,SW,6.9,-,N/A,Rain,Rain,230,2013-10-07 14:35:00
10:55 AM,50.0,50.0,100,29.76,7.0,SW,9.2,17.3,N/A,Rain,Light Rain,230,2013-10-07 14:55:00
11:15 AM,50.0,50.0,100,29.77,5.0,WSW,5.8,-,N/A,Rain,Rain,250,2013-10-07 15:15:00
11:35 AM,50.0,50.0,100,29.77,10.0,WSW,9.2,-,N/A,Rain,Light Rain,250,2013-10-07 15:35:00
11:55 AM,50.0,48.2,94,29.76,10.0,WSW,8.1,-,N/A,,Drizzle,240,2013-10-07 15:55:00
12:15 PM,48.2,46.4,93,29.76,10.0,West,9.2,20.7,N/A,,Drizzle,260,2013-10-07 16:15:00
12:35 PM,48.2,46.4,93,29.77,10.0,WSW,8.1,-,N/A,,Overcast,250,2013-10-07 16:35:00
12:55 PM,50.0,46.4,87,29.77,10.0,West,11.5,21.9,N/A,,Overcast,260,2013-10-07 16:55:00
1:15 PM,50.0,42.8,76,29.76,10.0,West,12.7,25.3,N/A,,Mostly Cloudy,260,2013-10-07 17:15:00
1:35 PM,51.8,42.8,71,29.77,10.0,WSW,8.1,19.6,N/A,,Mostly Cloudy,250,2013-10-07 17:35:00
1:55 PM,51.8,37.4,58,29.77,10.0,West,10.4,28.8,N/A,,Scattered Clouds,280,2013-10-07 17:55:00
2:15 PM,51.8,37.4,58,29.78,10.0,West,10.4,25.3,N/A,,Scattered Clouds,260,2013-10-07 18:15:00
2:35 PM,51.8,37.4,58,29.78,10.0,West,9.2,23.0,N/A,,Scattered Clouds,260,2013-10-07 18:35:00
2:55 PM,51.8,39.2,62,29.80,10.0,SW,12.7,20.7,N/A,,Mostly Cloudy,230,2013-10-07 18:55:00
3:15 PM,51.8,37.4,58,29.81,10.0,WSW,13.8,27.6,N/A,,Mostly Cloudy,250,2013-10-07 19:15:00
3:35 PM,51.8,39.2,62,29.83,10.0,WSW,10.4,18.4,N/A,,Overcast,240,2013-10-07 19:35:00
3:55 PM,50.0,37.4,62,29.84,10.0,WSW,12.7,23.0,N/A,,Overcast,240,2013-10-07 19:55:00
4:15 PM,50.0,37.4,62,29.84,10.0,WSW,11.5,20.7,N/A,,Overcast,250,2013-10-07 20:15:00
4:35 PM,51.8,39.2,62,29.85,10.0,WSW,12.7,21.9,N/A,,Overcast,240,2013-10-07 20:35:00
4:55 PM,50.0,37.4,62,29.87,10.0,WSW,10.4,18.4,N/A,,Overcast,250,2013-10-07 20:55:00
5:15 PM,50.0,37.4,62,29.87,10.0,WSW,11.5,24.2,N/A,,Overcast,240,2013-10-07 21:15:00
5:35 PM,50.0,37.4,62,29.88,10.0,WSW,13.8,26.5,N/A,,Overcast,250,2013-10-07 21:35:00
5:55 PM,50.0,37.4,62,29.88,10.0,West,5.8,18.4,N/A,,Overcast,260,2013-10-07 21:55:00
6:15 PM,50.0,37.4,62,29.89,10.0,WSW,8.1,18.4,N/A,,Overcast,240,2013-10-07 22:15:00
6:35 PM,48.2,39.2,71,29.90,10.0,WSW,11.5,21.9,N/A,,Overcast,240,2013-10-07 22:35:00
6:55 PM,48.2,39.2,71,29.92,10.0,WSW,11.5,17.3,N/A,,Overcast,240,2013-10-07 22:55:00
7:15 PM,46.4,41.0,81,29.94,10.0,WSW,9.2,16.1,N/A,Rain,Rain,240,2013-10-07 23:15:00
7:35 PM,46.4,41.0,81,29.94,10.0,WSW,8.1,18.4,N/A,,Drizzle,240,2013-10-07 23:35:00
7:55 PM,44.6,42.8,93,29.95,10.0,WSW,5.8,-,N/A,Rain,Light Rain,240,2013-10-07 23:55:00
8:15 PM,46.4,42.8,87,29.96,10.0,SW,9.2,17.3,N/A,,Light Drizzle,230,2013-10-08 00:15:00
8:35 PM,46.4,42.8,87,29.97,10.0,WSW,6.9,-,N/A,,Overcast,240,2013-10-08 00:35:00
8:55 PM,46.4,41.0,81,29.98,10.0,WSW,11.5,16.1,N/A,Rain,Light Rain,240,2013-10-08 00:55:00
9:15 PM,46.4,42.8,87,30.00,10.0,WSW,8.1,-,N/A,Rain,Rain,240,2013-10-08 01:15:00
9:35 PM,44.6,42.8,93,30.01,7.0,WSW,6.9,-,N/A,Rain,Light Rain,240,2013-10-08 01:35:00
9:55 PM,44.6,42.8,93,30.02,7.0,WSW,4.6,-,N/A,Rain,Light Rain,250,2013-10-08 01:55:00
10:15 PM,44.6,44.6,100,30.04,7.0,West,4.6,-,N/A,Rain,Light Rain,260,2013-10-08 02:15:00
10:35 PM,44.6,44.6,100,30.06,7.0,WNW,4.6,-,N/A,Rain,Light Rain,300,2013-10-08 02:35:00
10:55 PM,44.6,44.6,100,30.06,10.0,West,4.6,-,N/A,,Overcast,270,2013-10-08 02:55:00
11:15 PM,44.6,44.6,100,30.07,10.0,Calm,Calm,-,N/A,,Overcast,0,2013-10-08 03:15:00
11:35 PM,44.6,44.6,100,30.08,10.0,Calm,Calm,-,N/A,,Overcast,0,2013-10-08 03:35:00
11:55 PM,44.6,44.6,100,30.08,10.0,Calm,Calm,-,N/A,,Overcast,0,2013-10-08 03:55:00